OM2RC-6 Weather Reports


Display with metric or nautical units.
time (UTC)temp
F
wind
direction
speed
MPH
gust
MPH
rain 1hr
in
rain 24hr
in
rain mn
in
humidity
%
barometer
mb
20260505204838 62 152 13.0 22.0 0.00 0.00 0.00 89 1007.6
20260505203333 62 152 10.0 22.0 0.00 0.00 0.00 88 1007.6
20260505202832 62 151 11.0 24.0 0.00 0.00 0.00 87 1007.6
20260505202331 62 149 10.0 24.0 0.00 0.00 0.00 88 1007.7
20260505201830 62 149 9.0 22.0 0.00 0.00 0.00 87 1007.6
20260505201329 62 154 11.0 22.0 0.00 0.00 0.00 87 1007.7
20260505200327 62 140 10.0 22.0 0.00 0.00 0.00 86 1007.7
20260505195553 62 146 7.0 18.0 0.00 0.00 0.00 86 1007.7
20260505195034 63 139 8.0 22.0 0.00 0.00 0.00 85 1007.8
20260505194515 63 151 9.0 22.0 0.00 0.00 0.00 84 1007.8
20260505193956 63 156 6.0 24.0 0.00 0.00 0.00 84 1007.8
20260505193610 63 152 11.0 24.0 0.00 0.00 0.00 83 1007.7
20260505192918 63 143 9.0 20.0 0.00 0.00 0.00 82 1007.8
20260505192358 63 157 7.0 20.0 0.00 0.00 0.00 82 1007.9
20260505191839 63 162 9.0 17.0 0.00 0.00 0.00 80 1007.9
20260505191353 63 172 5.0 17.0 0.00 0.00 0.00 80 1008.1
20260505190801 63 164 5.0 14.0 0.00 0.00 0.00 79 1007.9
20260505190242 63 159 6.0 14.0 0.00 0.00 0.00 78 1008.1
20260505185723 63 163 3.0 12.0 0.00 0.00 0.00 77 1008.1
20260505185211 63 174 3.0 8.0 0.00 0.00 0.00 76 1008.0
20260505184645 63 191 3.0 12.0 0.00 0.00 0.00 74 1007.9
20260505184126 64 184 5.0 13.0 0.00 0.00 0.00 73 1007.9
20260505183607 64 163 6.0 19.0 0.00 0.00 0.00 71 1007.8
20260505183047 64 163 10.0 19.0 0.00 0.00 0.00 69 1007.7
20260505181450 65 144 7.0 15.0 0.00 0.00 0.00 66 1007.7
20260505180935 65 162 7.0 19.0 0.00 0.00 0.00 63 1007.6
20260505180514 65 151 12.0 19.0 0.00 0.00 0.00 60 1007.8
20260505175853 65 174 7.0 14.0 0.00 0.00 0.00 59 1007.7
20260505175334 66 174 5.0 15.0 0.00 0.00 0.00 56 1007.7
20260505174815 66 155 6.0 13.0 0.00 0.00 0.00 55 1007.7
20260505174256 66 154 7.0 15.0 0.00 0.00 0.00 54 1007.7
20260505173737 67 171 5.0 16.0 0.00 0.00 0.00 54 1007.6
20260505173218 67 157 6.0 16.0 0.00 0.00 0.00 54 1007.7
20260505171200 69 157 11.0 25.0 0.00 0.00 0.00 50 1007.3
20260505170658 69 152 12.0 31.0 0.00 0.00 0.00 50 1007.2
20260505170158 69 152 13.0 31.0 0.00 0.00 0.00 51 1007.3
20260505165152 69 157 12.0 29.0 0.00 0.00 0.00 53 1007.4
20260505164651 69 162 9.0 31.0 0.00 0.00 0.00 54 1007.6
20260505164150 70 162 9.0 31.0 0.00 0.00 0.00 53 1007.6
20260505163649 70 169 14.0 30.0 0.00 0.00 0.00 52 1007.6
20260505163148 70 164 17.0 30.0 0.00 0.00 0.00 51 1007.3
20260505162646 70 159 13.0 25.0 0.00 0.00 0.00 51 1007.8
20260505162145 70 160 15.0 26.0 0.00 0.00 0.00 51 1007.5
20260505161643 71 162 16.0 26.0 0.00 0.00 0.00 49 1007.7
20260505161140 72 158 9.0 24.0 0.00 0.00 0.00 48 1007.7
20260505160638 72 161 15.0 31.0 0.00 0.00 0.00 49 1007.8
20260505160133 72 164 16.0 32.0 0.00 0.00 0.00 48 1007.8
20260505153123 74 162 17.0 36.0 0.00 0.00 0.00 46 1007.7
20260505152621 74 158 18.0 36.0 0.00 0.00 0.00 45 1007.4
20260505152120 75 163 14.0 30.0 0.00 0.00 0.00 46 1007.6
20260505151617 76 167 14.0 25.0 0.00 0.00 0.00 45 1007.6
20260505151116 76 164 11.0 23.0 0.00 0.00 0.00 44 1007.6
20260505150615 76 162 13.0 22.0 0.00 0.00 0.00 43 1007.7
20260505125040 77 164 8.0 21.0 0.00 0.00 0.00 43 1008.9
20260505124539 77 174 8.0 21.0 0.00 0.00 0.00 43 1009.0
20260505124038 78 149 7.0 24.0 0.00 0.00 0.00 43 1009.0
20260505123036 76 168 14.0 25.0 0.00 0.00 0.00 44 1009.0
20260505122533 76 146 9.0 25.0 0.00 0.00 0.00 43 1009.1
20260505121530 73 145 11.0 27.0 0.00 0.00 0.00 44 1009.1
20260505121028 73 136 13.0 23.0 0.00 0.00 0.00 44 1009.2
20260505120527 73 147 11.0 24.0 0.00 0.00 0.00 44 1009.2
20260505115525 73 146 12.0 26.0 0.00 0.00 0.00 42 1009.3
20260505115024 74 134 11.0 25.0 0.00 0.00 0.00 40 1009.2
20260505114021 74 145 12.0 23.0 0.00 0.00 0.00 39 1009.2
20260505113520 74 137 12.0 22.0 0.00 0.00 0.00 40 1009.4
20260505113018 74 131 10.0 22.0 0.00 0.00 0.00 40 1009.2
20260505112517 74 158 8.0 22.0 0.00 0.00 0.00 40 1009.2
20260505112016 75 153 9.0 23.0 0.00 0.00 0.00 41 1009.4
20260505111514 74 125 13.0 23.0 0.00 0.00 0.00 41 1009.6
20260505111012 74 149 10.0 21.0 0.00 0.00 0.00 44 1009.4
20260505110512 74 151 11.0 29.0 0.00 0.00 0.00 45 1009.6
20260505101958 73 137 13.0 30.0 0.00 0.00 0.00 47 1009.7
20260505101456 72 165 16.0 30.0 0.00 0.00 0.00 49 1009.8
20260505100453 72 146 12.0 21.0 0.00 0.00 0.00 53 1009.9
20260505095953 71 146 10.0 21.0 0.00 0.00 0.00 53 1009.9
20260505095449 72 150 9.0 21.0 0.00 0.00 0.00 53 1009.9
20260505094948 71 141 12.0 31.0 0.00 0.00 0.00 53 1010.0
20260505094446 70 132 14.0 31.0 0.00 0.00 0.00 55 1010.1
20260505093444 70 137 12.0 26.0 0.00 0.00 0.00 56 1009.8
20260505092943 69 147 12.0 23.0 0.00 0.00 0.00 57 1010.3
20260505092442 68 137 11.0 26.0 0.00 0.00 0.00 60 1010.3
20260505091941 67 134 12.0 28.0 0.00 0.00 0.00 61 1010.2
20260505091439 67 133 14.0 28.0 0.00 0.00 0.00 61 1010.2
20260505090937 68 146 12.0 22.0 0.00 0.00 0.00 59 1010.3
20260505090436 68 139 10.0 22.0 0.00 0.00 0.00 59 1010.3
20260505085936 67 141 8.0 22.0 0.00 0.00 0.00 60 1010.5
20260505084433 66 136 5.0 16.0 0.00 0.00 0.00 64 1010.9
20260505083931 66 126 7.0 21.0 0.00 0.00 0.00 63 1010.9
20260505082929 67 147 7.0 24.0 0.00 0.00 0.00 62 1011.0
20260505082427 68 157 7.0 24.0 0.00 0.00 0.00 60 1011.2
20260505081926 67 125 11.0 21.0 0.00 0.00 0.00 62 1010.9
20260505081425 66 131 9.0 20.0 0.00 0.00 0.00 64 1011.0
20260505080924 66 137 10.0 20.0 0.00 0.00 0.00 64 1010.9
20260505080422 66 117 8.0 19.0 0.00 0.00 0.00 64 1010.9
20260505075420 64 134 12.0 22.0 0.00 0.00 0.00 66 1010.8
20260505074919 64 130 12.0 23.0 0.00 0.00 0.00 69 1011.0
20260505074418 63 129 10.0 23.0 0.00 0.00 0.00 68 1010.9
20260505073916 64 128 10.0 21.0 0.00 0.00 0.00 68 1011.0
20260505073415 63 128 11.0 22.0 0.00 0.00 0.00 68 1011.0
20260505072914 64 143 10.0 22.0 0.00 0.00 0.00 68 1011.1
20260505072413 63 142 10.0 18.0 0.00 0.00 0.00 69 1011.2
20260505071911 63 144 8.0 22.0 0.00 0.00 0.00 69 1011.2
20260505070408 60 147 13.0 22.0 0.00 0.00 0.00 74 1011.3
20260505065907 61 139 9.0 22.0 0.00 0.00 0.00 73 1011.3
20260505065406 61 135 10.0 21.0 0.00 0.00 0.00 74 1011.2
20260505064906 61 142 8.0 21.0 0.00 0.00 0.00 74 1011.3
20260505064404 60 148 10.0 23.0 0.00 0.00 0.00 74 1011.2
20260505063902 60 156 9.0 29.0 0.00 0.00 0.00 74 1011.2
20260505062900 60 152 9.0 26.0 0.00 0.00 0.00 73 1011.1
20260505062359 60 151 11.0 24.0 0.00 0.00 0.00 75 1011.0
20260505061356 59 149 11.0 23.0 0.00 0.00 0.00 75 1010.9
20260505060855 59 143 10.0 25.0 0.00 0.00 0.00 75 1010.8
20260505060354 59 135 10.0 25.0 0.00 0.00 0.00 76 1010.8
20260505055853 58 142 14.0 25.0 0.00 0.00 0.00 76 1010.9
20260505055352 58 150 12.0 25.0 0.00 0.00 0.00 77 1010.8
20260505054851 58 147 9.0 22.0 0.00 0.00 0.00 77 1010.9
20260505054350 58 149 11.0 25.0 0.00 0.00 0.00 77 1010.9
20260505053849 58 139 13.0 25.0 0.00 0.00 0.00 76 1010.9
20260505052848 58 141 11.0 23.0 0.00 0.00 0.00 75 1011.1
20260505052346 58 139 11.0 25.0 0.00 0.00 0.00 74 1011.0
20260505051844 58 136 12.0 27.0 0.00 0.00 0.00 74 1011.0
20260505051342 58 158 12.0 27.0 0.00 0.00 0.00 74 1011.0
20260505050339 58 154 10.0 22.0 0.00 0.00 0.00 72 1010.8
20260505041327 58 143 11.0 23.0 0.00 0.00 0.00 70 1010.9
20260505040825 58 142 11.0 23.0 0.00 0.00 0.00 69 1010.8
20260505035823 58 146 11.0 25.0 0.00 0.00 0.00 68 1010.9
20260505034820 57 146 10.0 19.0 0.00 0.00 0.00 68 1011.0
20260505033816 58 152 10.0 22.0 0.00 0.00 0.00 66 1010.7
20260505033312 58 148 8.0 21.0 0.00 0.00 0.00 65 1011.0
20260505032809 58 149 11.0 23.0 0.00 0.00 0.00 62 1011.0
20260505032308 58 143 9.0 23.0 0.00 0.00 0.00 61 1011.0
20260505031807 58 150 10.0 24.0 0.00 0.00 0.00 61 1011.0
20260505030804 58 144 11.0 26.0 0.00 0.00 0.00 59 1010.9
20260505030302 58 138 10.0 26.0 0.00 0.00 0.00 58 1010.8
20260505025801 59 138 14.0 24.0 0.00 0.00 0.00 57 1010.9
20260505025300 59 137 12.0 22.0 0.00 0.00 0.00 57 1010.8
20260505024759 59 151 12.0 22.0 0.00 0.00 0.00 56 1011.0
20260505024258 59 147 9.0 22.0 0.00 0.00 0.00 55 1010.9
20260505023756 59 142 12.0 22.0 0.00 0.00 0.00 54 1010.9
20260505023255 59 143 9.0 21.0 0.00 0.00 0.00 53 1010.9
20260505022754 59 149 9.0 24.0 0.00 0.00 0.00 52 1011.0
20260505022252 59 147 10.0 24.0 0.00 0.00 0.00 52 1011.0
20260505021751 59 138 11.0 22.0 0.00 0.00 0.00 51 1011.0
20260505021250 59 138 10.0 22.0 0.00 0.00 0.00 51 1011.2
20260505020749 60 138 11.0 26.0 0.00 0.00 0.00 51 1011.1
20260505020247 60 144 12.0 26.0 0.00 0.00 0.00 50 1011.1
20260505015746 60 133 15.0 24.0 0.00 0.00 0.00 49 1011.2
20260505015245 60 140 11.0 21.0 0.00 0.00 0.00 49 1011.3
20260505014744 59 148 9.0 21.0 0.00 0.00 0.00 49 1011.5
20260505014243 60 146 8.0 21.0 0.00 0.00 0.00 49 1011.5
20260505013742 60 148 9.0 21.0 0.00 0.00 0.00 48 1011.6
20260505013241 60 141 10.0 24.0 0.00 0.00 0.00 48 1011.5
20260505012739 60 148 12.0 24.0 0.00 0.00 0.00 48 1011.6
20260505012238 60 152 11.0 25.0 0.00 0.00 0.00 48 1011.8
20260505011737 60 147 13.0 25.0 0.00 0.00 0.00 48 1011.7
20260505010733 60 153 11.0 23.0 0.00 0.00 0.00 47 1011.7
20260505010232 60 149 11.0 23.0 0.00 0.00 0.00 47 1011.6
20260505005731 61 146 9.0 27.0 0.00 0.00 0.00 47 1011.7
20260505005229 61 142 10.0 27.0 0.00 0.00 0.00 47 1011.5
20260505004727 61 145 12.0 27.0 0.00 0.00 0.00 46 1011.5
20260505003725 61 147 13.0 27.0 0.00 0.00 0.00 46 1011.7
20260505002222 61 146 12.0 23.0 0.00 0.00 0.00 47 1012.1
20260505001721 61 148 12.0 23.0 0.00 0.00 0.00 46 1012.2
20260505001219 61 145 13.0 22.0 0.00 0.00 0.00 47 1012.2
20260505000718 61 154 13.0 22.0 0.00 0.00 0.00 47 1012.2
20260505000218 61 154 10.0 20.0 0.00 0.00 0.00 47 1012.5
20260504235715 61 155 11.0 24.0 0.00 0.00 0.00 47 1012.6
20260504235214 61 158 12.0 24.0 0.00 0.00 0.00 47 1012.7
20260504234713 62 157 12.0 19.0 0.00 0.00 0.00 46 1012.8
20260504234212 62 174 8.0 20.0 0.00 0.00 0.00 46 1012.9
20260504232708 62 156 9.0 21.0 0.00 0.00 0.00 46 1012.6
20260504232206 62 167 10.0 19.0 0.00 0.00 0.00 47 1012.6
20260504231705 63 166 7.0 19.0 0.00 0.00 0.00 47 1012.7
20260504231204 63 161 9.0 17.0 0.00 0.00 0.00 47 1012.8
20260504230659 63 162 8.0 18.0 0.00 0.00 0.00 48 1012.9
20260504225657 63 157 9.0 19.0 0.00 0.00 0.00 48 1013.0
20260504225155 63 159 8.0 19.0 0.00 0.00 0.00 48 1013.3
20260504224653 63 151 9.0 17.0 0.00 0.00 0.00 48 1013.2
20260504224152 63 154 9.0 19.0 0.00 0.00 0.00 48 1013.3
20260504223651 63 152 8.0 19.0 0.00 0.00 0.00 47 1013.3
20260504223150 64 149 9.0 16.0 0.00 0.00 0.00 47 1013.4
20260504221646 64 154 8.0 19.0 0.00 0.00 0.00 48 1013.6
20260504221144 64 156 8.0 18.0 0.00 0.00 0.00 47 1013.6
20260504220643 64 159 7.0 15.0 0.00 0.00 0.00 46 1013.6
20260504220141 65 144 8.0 15.0 0.00 0.00 0.00 45 1013.7
20260504215640 65 144 9.0 15.0 0.00 0.00 0.00 45 1013.7
20260504215139 65 155 8.0 15.0 0.00 0.00 0.00 46 1013.7
20260504214637 64 152 8.0 14.0 0.00 0.00 0.00 46 1013.7
20260504214133 64 151 8.0 14.0 0.00 0.00 0.00 48 1013.7
20260504213631 64 158 8.0 14.0 0.00 0.00 0.00 47 1013.7
20260504213131 64 158 9.0 12.0 0.00 0.00 0.00 48 1013.7
20260504212630 64 153 7.0 12.0 0.00 0.00 0.00 47 1013.8
20260504211627 64 157 6.0 12.0 0.00 0.00 0.00 46 1013.9
20260504211126 65 156 6.0 12.0 0.00 0.00 0.00 46 1013.9
20260504210624 65 152 8.0 12.0 0.00 0.00 0.00 45 1014.0
20260504210122 66 146 7.0 16.0 0.00 0.00 0.00 44 1013.9
20260504205621 66 154 9.0 16.0 0.00 0.00 0.00 44 1014.1